Location: Tuttlingen
(47.9853°N, 8.8165°E)
Time: 07:25:01
(UTC+02:00)

ISS - Visible Passes

Search period start: 29 March 2017 00:00
Search period end: 08 April 2017 00:00
Orbit: 399 x 409 km, 51.6° (Epoch: 29 March)

Date Brightness Start Highest point End Pass type
(mag) Time Alt. Az. Time Alt. Az. Time Alt. Az.
29 Mar -4.0 21:41:45 10° WSW 21:45:01 80° SSE 21:45:05 79° SE visible
30 Mar -3.6 20:49:31 10° SW 20:52:41 50° SSE 20:55:20 14° ENE visible
30 Mar -2.0 22:25:59 10° W 22:28:00 31° WNW 22:28:00 31° WNW visible
31 Mar -3.5 21:33:28 10° W 21:36:43 64° NNW 21:38:02 32° NE visible
31 Mar -0.5 23:10:22 10° WNW 23:10:43 12° WNW 23:10:43 12° WNW visible
01 Apr -3.8 20:41:01 10° WSW 20:44:17 89° NNW 20:47:34 10° ENE visible
01 Apr -2.6 22:17:50 10° WNW 22:20:37 40° NNW 22:20:37 40° NNW visible
02 Apr -3.0 21:25:17 10° W 21:28:28 47° N 21:30:24 20° ENE visible
02 Apr -1.0 23:02:06 10° WNW 23:03:04 18° WNW 23:03:04 18° WNW visible
03 Apr -3.3 20:32:43 10° W 20:35:57 58° NNW 20:39:11 10° ENE visible
03 Apr -2.9 22:09:36 10° WNW 22:12:45 42° N 22:12:46 42° N visible
04 Apr -2.8 21:17:03 10° WNW 21:20:11 41° N 21:22:25 17° ENE visible
04 Apr -1.4 22:53:41 10° WNW 22:55:04 23° WNW 22:55:04 23° WNW visible
05 Apr -3.3 22:01:12 10° WNW 22:04:26 51° NNE 22:04:40 50° NNE visible
06 Apr -3.0 21:08:42 10° WNW 21:11:52 44° N 21:14:16 15° ENE visible
06 Apr -1.8 22:45:13 10° WNW 22:46:54 28° WNW 22:46:54 28° WNW visible
07 Apr -3.8 21:52:44 10° WNW 21:56:00 75° NNE 21:56:28 60° E visible
